Weather past 2 weeks in Saipan, Northern Mariana Islands

Now
81 °F

Light rain. Fog.


Feels Like: 88 °F
Forecast: 76 / 82 °F
Wind: 20 mph from East

Location: Saipan International Airport

Current Time: May 24, 2015 at 11:37:55 PM

Latest Report: May 24, 2015 at 11:07 PM


Visibility: 5 mi

Pressure: 29.89 "Hg

Humidity: 94%

Dew point: 79 °F

Location of SaipanLocation

Historic Weather in Saipan — Graph

°F

Saipan temperature yesterday

Maximum temperature yesterday: 86 °F (at 11:54 AM)
Minimum temperature yesterday: 79 °F (at 4:01 AM)
Average temperature yesterday: 81 °F

Past Weeks' High & Low Weather Summary

 TemperatureHumidityPressure
High88 °F (May 13, 11:18 AM)100% (May 15, 5:34 AM)30.07 "Hg (May 15, 5:34 AM)
Low73 °F (May 15, 5:34 AM)62% (May 13, 11:18 AM)29.45 "Hg (May 15, 5:44 PM)
Average81 °F83%29.88 "Hg
* Reported May 9 9:54 PM — May 24 9:54 PM, Saipan, Weather by CustomWeather, © 2015

Note: Actual official high and low records may vary slightly from our data, if they occured in-between our weather recording intervals... More about our weather records

Advertising

Saipan weather history for previous 24 hours

 ConditionsComfort  
Time TempWeatherWind HumidityBarometerVisibility
9:54 PM
Sun, May 24
80 °FPassing clouds.8 mph90%29.96 "Hg10 mi
8:54 PM80 °FPassing clouds.9 mph90%29.96 "Hg10 mi
7:54 PM79 °FPassing clouds.14 mph94%29.94 "Hg10 mi
6:54 PM80 °FPassing clouds.13 mph85%29.93 "Hg10 mi
5:54 PM81 °FScattered clouds.14 mph85%29.92 "Hg10 mi
4:54 PM82 °FBroken clouds.14 mph85%29.90 "Hg10 mi
3:54 PM83 °FPassing clouds.12 mph82%29.91 "Hg10 mi
2:54 PM79 °FBroken clouds.15 mph90%29.93 "Hg10 mi
1:54 PM80 °FLight rain. Fog.16 mph94%29.94 "Hg3 mi
12:54 PM85 °FSunny.15 mph72%29.95 "Hg10 mi
11:54 AM83 °FScattered clouds.18 mph85%29.97 "Hg7 mi
10:54 AM85 °FScattered clouds.16 mph70%29.98 "Hg10 mi
9:54 AM85 °FScattered clouds.14 mph68%29.99 "Hg10 mi
8:54 AM84 °FPassing clouds.15 mph65%29.99 "Hg10 mi
7:54 AM82 °FSunny.14 mph74%29.99 "Hg10 mi
6:54 AM80 °FPassing clouds.10 mph76%29.98 "Hg10 mi
5:54 AM78 °FPassing clouds.13 mph82%29.97 "Hg10 mi
4:54 AM78 °FPassing clouds.13 mph82%29.95 "Hg10 mi
3:54 AM79 °FPassing clouds.14 mph82%29.95 "Hg10 mi
2:54 AM79 °FPassing clouds.9 mph84%29.96 "Hg10 mi
1:54 AM79 °FPassing clouds.12 mph84%29.97 "Hg10 mi
12:54 AM79 °FPassing clouds.13 mph79%29.98 "Hg10 mi
11:54 PM
Sat, May 23
80 °FPassing clouds.12 mph81%30.00 "Hg10 mi
Weather by CustomWeather, © 2015

See weather overviewHow to use our weather pages